Location: Bridgewater Hill Observatory
(43.5992°N, 72.6989°W)
Time: 13:23:30
(UTC-04:00)

Daily predictions for brighter satellites

Satellite Brightness Start Highest point End
(mag) Time Altitude Azimuth Time Altitude Azimuth Time Altitude Azimuth
NOSS 0 Rocket 4.1 19:02:29 10° SSW 19:08:40 86° WNW 19:14:55 10° NNE
Cosmos 1371 Rocket 4.0 19:03:59 10° NNW 19:09:18 78° ENE 19:14:37 10° SSE
ATLAS 5 CENTAUR R/B 3.2 19:06:28 10° SSE 19:09:39 18° ESE 19:13:00 10° ENE
Cosmos 1980 3.8 19:05:11 10° SSW 19:10:50 86° WNW 19:16:33 10° NNE
Helios 1A 3.8 19:08:05 10° SE 19:11:46 31° ENE 19:15:29 10° N
SL-16 R/B 2.5 19:10:48 10° S 19:16:09 44° ESE 19:21:31 10° NE
Cosmos 1953 3.6 19:16:34 10° SE 19:19:27 19° E 19:22:21 10° NE
SAR-Lupe-1 4.0 19:17:06 10° SSE 19:20:39 88° ENE 19:24:14 10° NNW
Cosmos 1464 Rocket 4.3 19:16:03 10° SSE 19:21:57 46° E 19:27:49 10° NNE
Cosmos 1812 Rocket 4.4 19:21:16 10° SSW 19:25:31 55° W 19:29:49 10° N
Aureole 2 Rocket 3.2 19:22:04 10° S 19:26:19 48° ESE 19:30:29 10° NNE
Cosmos 1624 Rocket 4.0 19:22:03 10° NNW 19:27:19 89° ENE 19:32:31 10° SSE
Cosmos 1766 Rocket 4.1 19:24:39 10° N 19:28:44 37° ENE 19:32:46 10° SE
COSMOS 2455 4.5 19:25:37 10° WSW 19:31:07 36° NW 19:36:40 10° NNE
ATLAS CENTAUR R/B 3.7 19:28:00 10° SSW 19:32:57 58° ESE 19:48:13 10° NE
Meteor 1-22 Rocket 4.0 19:30:04 10° S 19:35:25 77° E 19:40:43 10° NNE
Cosmos 1805 4.1 19:33:23 10° SSE 19:36:48 29° E 19:40:14 10° NNE
USA 215 3.3 19:30:59 10° NE 19:37:31 68° SE 19:44:00 10° SW
Cosmos 2219 Rocket 3.7 19:32:59 10° SW 19:38:11 38° WNW 19:43:28 10° NNE
HJ-1C 3.3 19:36:11 10° SSE 19:39:30 70° ENE 19:42:52 10° N
H-2A R/B 3.8 19:36:56 13° ESE 19:39:41 27° ENE 19:43:01 10° NNE
Cosmos 2278 Rocket 3.5 19:34:57 10° NW 19:40:16 43° WSW 19:45:34 10° S
Meteor 1-29 3.2 19:39:23 10° NNE 19:42:47 45° E 19:46:09 10° S
Timation 1 Rocket 4.3 19:37:59 10° NNW 19:44:00 75° ENE 19:49:57 10° SSE
Cosmos 2297 3.8 19:38:21 10° NNW 19:44:03 82° WSW 19:49:42 10° SSE
METEOR-M 4.1 19:39:24 10° SSE 19:44:46 88° ENE 19:50:09 10° NNW
Meteor 1-28 Rocket 3.5 19:41:54 10° N 19:45:37 68° WNW 19:49:18 10° SSW
Meteor 1-24 Rocket 4.0 19:40:01 10° NNW 19:45:43 72° W 19:51:10 10° S
Cosmos 1378 3.2 19:43:30 10° N 19:47:14 78° W 19:50:58 10° S
FENGYUN 3A 3.8 19:45:53 10° SE 19:51:04 52° ENE 19:56:18 10° N
Cosmos 1076 Rocket 3.4 19:47:02 10° N 19:51:22 79° E 19:55:42 10° SSE
SJ-6B 4.1 19:48:15 10° S 19:52:02 44° W 19:55:55 10° NNW
Cosmos 1544 3.9 19:49:59 10° SSE 19:53:15 29° E 19:56:32 10° NNE
Cosmos 1346 4.1 19:52:26 10° NNE 19:54:56 27° ENE 19:54:56 27° ENE
ERS-1 Rocket 4.3 19:54:39 19° E 19:55:50 20° ENE 19:59:27 10° NNE
Cosmos-2242 3.2 19:52:04 10° SSE 19:56:14 47° E 20:00:28 10° NNE
Cosmos 1452 Rocket 3.5 19:51:19 10° NNW 19:56:34 65° ENE 20:01:27 12° SSE
ATLAS 3B R/B 4.4 19:51:03 10° WSW 19:57:55 36° NW 20:04:36 10° NNE
Helios 1B rocket 2.4 19:55:16 10° NNE 19:59:24 90° E 20:03:30 10° SSW
Cosmos 2369 Rocket 3.4 19:55:21 10° N 19:59:53 24° NE 20:01:48 20° E
Cosmos 1758 3.3 19:56:00 10° S 19:59:59 58° E 20:04:03 10° NNE
Cosmos 192 4.2 19:56:45 10° SSW 20:01:42 80° ESE 20:06:41 10° NNE
Cosmos 1842 Rocket 4.4 20:02:21 26° E 20:02:24 26° E 20:06:02 10° NNE
SeaSat 1 3.0 19:58:00 10° NE 20:02:29 33° ESE 20:06:55 10° S
Cosmos 1603 4.1 19:57:55 10° S 20:03:13 40° ESE 20:08:33 10° NE
Cosmos 1500 Rocket 4.3 19:59:33 10° NNE 20:03:30 31° ENE 20:04:33 28° ESE
Cosmos 1408 Rocket 3.5 20:00:11 10° N 20:04:34 85° W 20:08:54 10° S
Resurs 01 Rocket 2.3 20:04:58 10° S 20:09:20 57° W 20:13:44 10° NNW
Cosmos 1943 Rocket 4.0 20:08:07 10° N 20:11:16 15° NE 20:12:21 14° ENE
FengYun 1-2 T 4.3 20:06:55 10° S 20:12:27 78° WSW 20:17:58 10° NNW
NOSS 3-2 (A) 3.5 20:06:29 10° SW 20:12:36 87° NW 20:19:18 10° NE
Resurs 1-3 3.9 20:09:01 10° S 20:13:22 66° WSW 20:17:45 10° NNW
Cosmos 2333 Rocket 4.3 20:08:34 10° WSW 20:13:30 29° NW 20:18:28 10° N
Cosmos 2151 4.5 20:12:27 10° NNE 20:14:46 20° NE 20:14:46 20° NE
CZ-4B DEB 2.8 20:15:36 24° S 20:17:28 79° WSW 20:20:45 10° NNW
Cosmos 1420 Rocket 4.1 20:15:26 10° NNW 20:20:41 60° ENE 20:23:00 32° SE
Cosmos 1939 Rocket 4.4 20:24:39 23° NE 20:24:39 23° NE 20:26:55 10° NNE
ATLAS CENTAUR R/B 3.9 20:21:05 10° WNW 20:23:59 18° WSW 20:26:43 10° SSW
Atlas Centaur 2 4.5 20:18:09 10° WSW 20:24:30 24° SSW 20:28:59 15° SSE
Meteor 1-21 Rocket 4.2 20:19:47 10° N 20:25:23 86° W 20:30:55 10° S
ALOS 2.6 20:26:30 10° S 20:31:08 65° W 20:35:47 10° NNW
Cosmos 1743 Rocket 3.5 20:26:51 10° N 20:31:20 88° E 20:33:29 30° S
Cosmos 1674 2.6 20:28:33 10° N 20:32:22 64° ENE 20:32:22 64° ENE
Nadezhda 4 Rocket 3.9 20:26:06 10° N 20:32:26 89° ENE 20:38:40 10° S
Cosmos 1269 Rocket 3.9 20:29:05 10° S 20:34:16 61° ESE 20:39:29 10° NNE
Cosmos 1092 Rocket 3.9 20:31:10 10° N 20:37:25 72° E 20:40:56 27° SSE
GP-B 3.1 20:34:59 10° N 20:39:11 57° ENE 20:39:11 57° ENE
Cosmos 1048 Rocket 3.9 20:35:58 10° S 20:41:11 60° ESE 20:46:22 10° NNE
OAO 3 Rocket 4.3 20:42:12 10° WSW 20:46:04 29° S 20:46:04 29° S
NOSS 3-2 (C) 3.9 20:43:35 10° SW 20:49:39 64° NW 20:56:22 10° NNE
Envisat 3.2 20:50:02 51° ENE 20:50:02 51° ENE 20:54:46 10° N
ASTEX 1 3.8 20:46:24 10° N 20:51:16 63° W 20:56:06 10° SSW
CZ-4C R/B 4.3 20:47:02 10° W 20:51:38 25° NNW 20:56:46 10° NNE
Cosmos 1634 Rocket 3.9 20:49:15 28° SSE 20:52:41 67° E 20:58:51 10° NNE
CENTAUR R/B 4.0 20:47:14 10° S 21:00:34 - NE 20:48:51 19° S
ATLAS 5 CENTAUR R/B 2.2 20:48:56 10° SW 20:53:42 63° NW 20:58:56 10° NNE
Cosmos 2026 Rocket 4.0 20:48:13 10° N 20:54:11 55° ENE 20:54:39 54° E
Cosmos 1953 4.2 20:52:09 10° SW 20:55:42 31° WNW 20:59:16 10° NNW
SL-16 R/B 4.0 20:55:24 10° WSW 21:00:24 31° NW 21:05:27 10° N
H-2A R/B 3.8 21:14:40 24° NNE 21:14:40 24° NNE 21:16:40 10° N
SJ-11-01 4.5 21:14:09 68° WNW 21:14:09 68° WNW 21:18:32 10° NNW
Cosmos 2195 Rocket 4.4 21:09:15 10° N 21:15:37 90° E 21:16:42 64° S
USA 215 4.1 21:14:22 11° NE 21:20:20 46° NNW 21:26:29 10° W
ERS-1 Rocket 3.6 21:34:40 52° W 21:34:40 52° W 21:39:09 10° NNW
SeaSat 1 3.9 21:35:29 10° NNE 21:40:00 36° NW 21:44:29 10° WSW
Cosmos 2369 Rocket 2.7 21:38:45 10° NNW 21:43:36 55° WNW 21:43:36 55° WNW
Cosmos 839 Rocket 4.4 21:41:40 10° NW 21:49:16 66° WSW 21:49:20 66° WSW
Cosmos 1943 Rocket 3.3 21:50:21 10° NNW 21:53:53 39° NNW 21:53:53 39° NNW
H-2A R/B 4.4 22:24:26 17° N 22:24:26 17° N 22:25:33 10° N
